• In Netherlands
  • List of Countries
  • For 7 days
  • Water Temperature
  • Satellite Maps
  • Weather Map
  • Weather Widgets
  • user-avatar
    Login

    Hourly Weather Kaprun

    Today, 27 May, Saturday

    Time Temperature Precipitation Wind Pressure Humidity
    00:00 +3°C° 0 mm 1 mps 598 mmHg 96%
    01:00 +2°C° 0 mm 1 mps 598 mmHg 95%
    02:00 +2°C° 0 mm 1 mps 598 mmHg 93%
    03:00 +1°C° 0 mm 1 mps 598 mmHg 91%
    04:00 +1°C° 0 mm 1 mps 597 mmHg 89%
    05:00 +4°C° 0 mm 1 mps 599 mmHg 83%
    06:00 +6°C° 0 mm 1 mps 600 mmHg 77%
    07:00 +9°C° 0 mm 1 mps 602 mmHg 71%
    08:00 +11°C° 0 mm 1 mps 602 mmHg 63%
    09:00 +13°C° 0 mm 1 mps 603 mmHg 56%
    10:00 +14°C° 0 mm 1 mps 604 mmHg 49%
    11:00 +15°C° 0 mm 1 mps 604 mmHg 47%
    12:00 +16°C° 0 mm 1 mps 604 mmHg 46%
    13:00 +18°C° 0 mm 1 mps 605 mmHg 44%
    14:00 +18°C° 0 mm 1 mps 605 mmHg 47%
    15:00 +16°C° 0 mm 2 mps 604 mmHg 50%
    16:00 +16°C° 0 mm 2 mps 604 mmHg 53%
    17:00 +14°C° 0.1 mm 1 mps 603 mmHg 65%
    18:00 +12°C° 0.1 mm 1 mps 603 mmHg 76%
    19:00 +10°C° 0.1 mm 1 mps 602 mmHg 88%
    20:00 +8°C° 0 mm 1 mps 601 mmHg 90%
    21:00 +6°C° 0 mm 1 mps 600 mmHg 93%
    22:00 +3°C° 0 mm 1 mps 599 mmHg 96%
    23:00 +3°C° 0 mm 1 mps 600 mmHg 95%

    Tomorrow, 28 May, Sunday

    Time Temperature Precipitation Wind Pressure Humidity
    00:00 +4°C° 0 mm 1 mps 600 mmHg 94%
    01:00 +4°C° 0 mm 1 mps 600 mmHg 93%
    02:00 +3°C° 0 mm 1 mps 600 mmHg 93%
    03:00 +3°C° 0 mm 1 mps 600 mmHg 92%
    04:00 +3°C° 0 mm 1 mps 600 mmHg 91%
    05:00 +6°C° 0 mm 1 mps 601 mmHg 85%
    06:00 +8°C° 0 mm 1 mps 602 mmHg 79%
    07:00 +11°C° 0 mm 1 mps 604 mmHg 73%
    08:00 +13°C° 0 mm 1 mps 604 mmHg 63%
    09:00 +14°C° 0 mm 0 mps 605 mmHg 53%
    10:00 +16°C° 0 mm 0 mps 606 mmHg 42%
    11:00 +18°C° 0 mm 1 mps 606 mmHg 41%
    12:00 +19°C° 0 mm 1 mps 606 mmHg 40%
    13:00 +19°C° 0 mm 1 mps 606 mmHg 39%
    14:00 +19°C° 0.1 mm 1 mps 606 mmHg 43%
    15:00 +18°C° 0.1 mm 1 mps 605 mmHg 47%
    16:00 +18°C° 0.1 mm 1 mps 605 mmHg 50%
    17:00 +15°C° 0.1 mm 1 mps 604 mmHg 61%
    18:00 +13°C° 0.1 mm 1 mps 603 mmHg 73%
    19:00 +10°C° 0.1 mm 0 mps 602 mmHg 84%
    20:00 +9°C° 0 mm 1 mps 601 mmHg 87%
    21:00 +7°C° 0 mm 1 mps 601 mmHg 90%
    22:00 +5°C° 0 mm 1 mps 600 mmHg 93%
    23:00 +5°C° 0 mm 1 mps 600 mmHg 92%

    Day after tomorrow, 29 May, Monday

    Time Temperature Precipitation Wind Pressure Humidity
    00:00 +5°C° 0 mm 1 mps 600 mmHg 91%
    01:00 +5°C° 0 mm 1 mps 600 mmHg 89%
    02:00 +5°C° 0 mm 1 mps 599 mmHg 89%
    03:00 +5°C° 0 mm 1 mps 599 mmHg 89%
    04:00 +4°C° 0 mm 1 mps 598 mmHg 89%
    05:00 +7°C° 0 mm 1 mps 600 mmHg 84%
    06:00 +9°C° 0 mm 1 mps 601 mmHg 78%
    07:00 +12°C° 0 mm 1 mps 602 mmHg 73%
    08:00 +14°C° 0 mm 1 mps 603 mmHg 65%
    09:00 +15°C° 0 mm 0 mps 603 mmHg 57%
    10:00 +17°C° 0 mm 0 mps 604 mmHg 49%
    11:00 +19°C° 0.1 mm 1 mps 604 mmHg 49%
    12:00 +20°C° 0.1 mm 1 mps 604 mmHg 50%
    13:00 +20°C° 0.1 mm 1 mps 604 mmHg 50%
    14:00 +19°C° 0.6 mm 1 mps 603 mmHg 55%
    15:00 +19°C° 0.6 mm 1 mps 603 mmHg 60%
    16:00 +18°C° 0.6 mm 1 mps 602 mmHg 65%
    17:00 +15°C° 0.7 mm 1 mps 602 mmHg 73%
    18:00 +14°C° 0.7 mm 1 mps 601 mmHg 81%
    19:00 +12°C° 0.7 mm 1 mps 600 mmHg 90%
    20:00 +10°C° 0.3 mm 1 mps 599 mmHg 91%
    21:00 +8°C° 0.3 mm 1 mps 598 mmHg 93%
    22:00 +6°C° 0.3 mm 1 mps 598 mmHg 95%
    23:00 +6°C° 0.1 mm 1 mps 598 mmHg 94%

    30 May, Tuesday

    Time Temperature Precipitation Wind Pressure Humidity
    00:00 +6°C° 0.1 mm 1 mps 598 mmHg 94%
    01:00 +6°C° 0.1 mm 1 mps 598 mmHg 93%
    02:00 +6°C° 0 mm 1 mps 598 mmHg 93%
    03:00 +6°C° 0 mm 1 mps 597 mmHg 93%
    04:00 +5°C° 0 mm 1 mps 597 mmHg 93%
    05:00 +8°C° 0 mm 1 mps 598 mmHg 89%
    06:00 +10°C° 0 mm 1 mps 600 mmHg 85%
    07:00 +12°C° 0 mm 1 mps 601 mmHg 82%
    08:00 +14°C° 0.1 mm 1 mps 601 mmHg 74%
    09:00 +15°C° 0.1 mm 1 mps 602 mmHg 67%
    10:00 +18°C° 0.1 mm 1 mps 603 mmHg 60%
    11:00 +18°C° 0.4 mm 1 mps 603 mmHg 62%
    12:00 +18°C° 0.4 mm 1 mps 603 mmHg 65%
    13:00 +18°C° 0.4 mm 1 mps 603 mmHg 68%
    14:00 +16°C° 1.4 mm 1 mps 602 mmHg 72%
    15:00 +16°C° 1.4 mm 1 mps 602 mmHg 76%
    16:00 +15°C° 1.4 mm 1 mps 602 mmHg 80%
    17:00 +14°C° 1.4 mm 1 mps 601 mmHg 85%
    18:00 +13°C° 1.4 mm 1 mps 601 mmHg 90%
    19:00 +11°C° 1.4 mm 0 mps 600 mmHg 94%
    20:00 +11°C° 1 mm 1 mps 600 mmHg 96%
    21:00 +10°C° 1 mm 1 mps 600 mmHg 97%
    22:00 +10°C° 1 mm 1 mps 600 mmHg 98%
    23:00 +9°C° 0.8 mm 1 mps 600 mmHg 98%

    31 May, Wednesday

    Time Temperature Precipitation Wind Pressure Humidity
    00:00 +9°C° 0.8 mm 1 mps 600 mmHg 98%
    01:00 +9°C° 0.8 mm 1 mps 600 mmHg 98%
    02:00 +9°C° 0.2 mm 1 mps 600 mmHg 97%
    03:00 +8°C° 0.2 mm 1 mps 600 mmHg 97%
    04:00 +8°C° 0.2 mm 1 mps 600 mmHg 97%
    05:00 +9°C° 0 mm 1 mps 600 mmHg 95%
    06:00 +10°C° 0 mm 1 mps 601 mmHg 92%
    07:00 +11°C° 0 mm 1 mps 601 mmHg 90%
    08:00 +12°C° 0.1 mm 1 mps 602 mmHg 84%
    09:00 +13°C° 0.1 mm 1 mps 602 mmHg 79%
    10:00 +15°C° 0.1 mm 1 mps 603 mmHg 73%
    11:00 +15°C° 0.6 mm 1 mps 603 mmHg 74%
    12:00 +15°C° 0.6 mm 1 mps 603 mmHg 75%
    13:00 +15°C° 0.6 mm 1 mps 602 mmHg 76%
    14:00 +15°C° 1 mm 1 mps 602 mmHg 78%
    15:00 +15°C° 1 mm 1 mps 602 mmHg 80%
    16:00 +14°C° 1 mm 1 mps 602 mmHg 82%
    17:00 +13°C° 0.8 mm 1 mps 601 mmHg 86%
    18:00 +13°C° 0.8 mm 1 mps 601 mmHg 90%
    19:00 +12°C° 0.8 mm 1 mps 601 mmHg 95%
    20:00 +11°C° 0.8 mm 1 mps 601 mmHg 96%
    21:00 +10°C° 0.8 mm 1 mps 600 mmHg 97%
    22:00 +9°C° 0.8 mm 1 mps 600 mmHg 98%
    23:00 +8°C° 0.4 mm 1 mps 600 mmHg 98%

    1 June, Thursday

    Time Temperature Precipitation Wind Pressure Humidity
    00:00 +8°C° 0.4 mm 1 mps 600 mmHg 98%
    01:00 +7°C° 0.4 mm 1 mps 599 mmHg 98%
    02:00 +7°C° 0.1 mm 1 mps 599 mmHg 98%
    03:00 +6°C° 0.1 mm 1 mps 599 mmHg 98%
    04:00 +6°C° 0.1 mm 1 mps 598 mmHg 98%
    05:00 +7°C° 0 mm 1 mps 599 mmHg 96%
    06:00 +9°C° 0 mm 1 mps 600 mmHg 94%
    07:00 +10°C° 0 mm 1 mps 601 mmHg 92%
    08:00 +11°C° 0.1 mm 1 mps 601 mmHg 89%
    09:00 +11°C° 0.1 mm 1 mps 601 mmHg 86%
    10:00 +12°C° 0.1 mm 1 mps 602 mmHg 83%
    11:00 +12°C° 0.4 mm 1 mps 602 mmHg 83%
    12:00 +13°C° 0.4 mm 1 mps 602 mmHg 83%
    13:00 +13°C° 0.4 mm 1 mps 602 mmHg 82%
    14:00 +13°C° 0.8 mm 1 mps 602 mmHg 83%
    15:00 +13°C° 0.8 mm 1 mps 601 mmHg 84%
    16:00 +13°C° 0.8 mm 1 mps 601 mmHg 86%
    17:00 +12°C° 0.6 mm 1 mps 601 mmHg 89%
    18:00 +11°C° 0.6 mm 1 mps 601 mmHg 92%
    19:00 +10°C° 0.6 mm 1 mps 600 mmHg 96%
    20:00 +9°C° 0.3 mm 1 mps 600 mmHg 97%
    21:00 +9°C° 0.3 mm 1 mps 600 mmHg 97%
    22:00 +7°C° 0.3 mm 0 mps 600 mmHg 98%
    23:00 +7°C° 0.4 mm 0 mps 600 mmHg 98%
    Show more